This is the latest recevied weather packets stored in our database for station/object KD0RII. If no packets are shown the sender has not sent any weather packets the latest 10 day(s).
| Time | Temp. | Humidity | Pressure | Rain* | Wind** | Luminosity | Snow |
|---|---|---|---|---|---|---|---|
| 1777641289 | 6.67° C | 94% | 1021 hPa | 0 mm | - | 62 W/m² | - |
| 1777640986 | 6.11° C | 94% | 1021.2 hPa | 0 mm | - | 52 W/m² | - |
| 1777640683 | 5.56° C | 94% | 1021.2 hPa | 0 mm | - | 41 W/m² | - |
| 1777640379 | 5° C | 94% | 1021.2 hPa | 0 mm | - | 42 W/m² | - |
| 1777640076 | 4.44° C | 94% | 1021.4 hPa | 0 mm | - | 39 W/m² | - |
| 1777639773 | 4.44° C | 94% | 1021.1 hPa | 0 mm | - | 36 W/m² | - |
| 1777639471 | 3.89° C | 94% | 1021.3 hPa | 0 mm | - | 34 W/m² | - |
| 1777639167 | 3.33° C | 94% | 1021.2 hPa | 0 mm | - | 33 W/m² | - |
| 1777638863 | 2.78° C | 94% | 1021.2 hPa | 0 mm | - | 32 W/m² | - |
| 1777638559 | 2.22° C | 94% | 1021.1 hPa | 0 mm | - | 30 W/m² | - |
| 1777638255 | 2.22° C | 94% | 1021 hPa | 0 mm | - | 28 W/m² | - |
| 1777637951 | 1.67° C | 94% | 1021.1 hPa | 0 mm | - | 27 W/m² | - |
| 1777637648 | 1.67° C | 94% | 1021 hPa | 0 mm | - | 24 W/m² | - |
| 1777637345 | 1.11° C | 94% | 1021 hPa | 0 mm | - | 23 W/m² | - |
| 1777637042 | 1.11° C | 94% | 1021.1 hPa | 0 mm | - | 21 W/m² | - |
| 1777636738 | 1.11° C | 94% | 1021 hPa | 0 mm | - | 18 W/m² | - |
| 1777636434 | 1.11° C | 93% | 1021 hPa | 0 mm | - | 16 W/m² | - |
| 1777636130 | 1.11° C | 93% | 1021 hPa | 0 mm | - | 13 W/m² | - |
| 1777635825 | 1.11° C | 93% | 1020.9 hPa | 0 mm | - | 10 W/m² | - |
| 1777635522 | 1.11° C | 93% | 1020.9 hPa | 0 mm | - | 8 W/m² | - |
| 1777635218 | 1.11° C | 93% | 1020.7 hPa | 0 mm | - | 5 W/m² | - |
| 1777634915 | 0.56° C | 93% | 1020.6 hPa | 0 mm | - | 3 W/m² | - |
| 1777634612 | 1.11° C | 93% | 1020.8 hPa | 0 mm | - | 2 W/m² | - |
| 1777634310 | 1.11° C | 93% | 1020.7 hPa | 0 mm | - | 1 W/m² | - |
| 1777634006 | 1.11° C | 93% | 1020.8 hPa | 0 mm | - | 0 W/m² | - |
* Rain latest hour (hover to see other rain measurements)
** Current wind speed in m/s (hover to see current wind gust speed)